| time (UTC) | temp F | wind direction | speed MPH | gust MPH | rain 1hr in | rain 24hr in | rain mn in | humidity % | barometer mb |
| 20260506191803 | 63 | 222 | 2.0 | 9.0 | 0.01 | 0.10 | 0.10 | 93 | 1003.8 |
| 20260506191510 | 62 | 254 | 1.0 | 8.0 | 0.01 | 0.10 | 0.10 | 93 | 1004.0 |
| 20260506191117 | 63 | 228 | 1.0 | 9.0 | 0.01 | 0.10 | 0.10 | 93 | 1003.9 |
| 20260506190015 | 62 | 221 | 0.0 | 1.0 | 0.02 | 0.10 | 0.10 | 94 | 1003.9 |
| 20260506190003 | 63 | 175 | 0.0 | 1.0 | 0.02 | 0.10 | 0.10 | 94 | 1003.8 |
| 20260506185403 | 63 | 181 | 0.0 | 2.0 | 0.02 | 0.10 | 0.10 | 93 | 1003.8 |
| 20260506184505 | 62 | 209 | 0.0 | 2.0 | 0.01 | 0.09 | 0.09 | 93 | 1003.9 |
| 20260506184503 | 63 | 225 | 0.0 | 4.0 | 0.01 | 0.09 | 0.09 | 93 | 1003.8 |
| 20260506183603 | 63 | 221 | 1.0 | 11.0 | 0.01 | 0.09 | 0.09 | 92 | 1003.8 |
| 20260506183018 | 63 | 99 | 2.0 | 10.0 | 0.01 | 0.09 | 0.09 | 92 | 1004.0 |
| 20260506182703 | 63 | 204 | 1.0 | 7.0 | 0.01 | 0.09 | 0.09 | 92 | 1003.9 |
| 20260506181803 | 64 | 217 | 2.0 | 6.0 | 0.01 | 0.09 | 0.09 | 92 | 1003.9 |
| 20260506181515 | 63 | 167 | 2.0 | 6.0 | 0.01 | 0.09 | 0.09 | 91 | 1004.1 |
| 20260506180903 | 64 | 226 | 1.0 | 5.0 | 0.01 | 0.09 | 0.09 | 91 | 1004.0 |
| 20260506180005 | 64 | 222 | 2.0 | 6.0 | 0.00 | 0.08 | 0.08 | 90 | 1004.1 |
| 20260506175403 | 65 | 221 | 0.0 | 3.0 | 0.01 | 0.08 | 0.08 | 90 | 1004.1 |
| 20260506174716 | 65 | 212 | 1.0 | 6.0 | 0.01 | 0.08 | 0.08 | 89 | 1004.2 |
| 20260506174508 | 65 | 243 | 0.0 | 6.0 | 0.01 | 0.08 | 0.08 | 89 | 1004.4 |
| 20260506173603 | 65 | 226 | 1.0 | 6.0 | 0.01 | 0.08 | 0.08 | 90 | 1004.3 |
| 20260506173012 | 65 | 198 | 1.0 | 7.0 | 0.01 | 0.08 | 0.08 | 90 | 1004.3 |
| 20260506172703 | 65 | 219 | 1.0 | 6.0 | 0.02 | 0.08 | 0.08 | 90 | 1004.2 |
| 20260506171803 | 66 | 199 | 1.0 | 4.0 | 0.02 | 0.08 | 0.08 | 92 | 1003.9 |
| 20260506171507 | 65 | 143 | 1.0 | 5.0 | 0.02 | 0.08 | 0.08 | 92 | 1004.0 |
| 20260506170903 | 65 | 209 | 1.0 | 4.0 | 0.03 | 0.08 | 0.08 | 92 | 1003.9 |
| 20260506170007 | 64 | 195 | 0.0 | 6.0 | 0.03 | 0.07 | 0.07 | 92 | 1004.2 |
| 20260506170004 | 65 | 201 | 1.0 | 6.0 | 0.03 | 0.07 | 0.07 | 92 | 1004.1 |
| 20260506165617 | 64 | 197 | 1.0 | 6.0 | 0.03 | 0.07 | 0.07 | 92 | 1004.3 |
| 20260506164509 | 63 | 199 | 1.0 | 6.0 | 0.05 | 0.07 | 0.07 | 91 | 1004.4 |
| 20260506164503 | 64 | 197 | 1.0 | 6.0 | 0.05 | 0.07 | 0.07 | 91 | 1004.3 |
| 20260506163603 | 64 | 188 | 1.0 | 5.0 | 0.06 | 0.07 | 0.07 | 91 | 1004.8 |
| 20260506163011 | 63 | 151 | 1.0 | 5.0 | 0.05 | 0.06 | 0.06 | 91 | 1005.2 |
| 20260506162917 | 64 | 195 | 0.0 | 2.0 | 0.06 | 0.06 | 0.06 | 91 | 1005.1 |
| 20260506161803 | 63 | 195 | 0.0 | 4.0 | 0.06 | 0.06 | 0.06 | 90 | 1005.4 |
| 20260506161515 | 63 | 206 | 0.0 | 3.0 | 0.05 | 0.05 | 0.05 | 89 | 1005.6 |
| 20260506160903 | 64 | 193 | 0.0 | 4.0 | 0.05 | 0.05 | 0.05 | 88 | 1005.5 |
| 20260506160009 | 64 | 205 | 0.0 | 2.0 | 0.04 | 0.04 | 0.04 | 87 | 1005.9 |
| 20260506160003 | 64 | 190 | 0.0 | 2.0 | 0.04 | 0.04 | 0.04 | 87 | 1005.7 |
| 20260506155616 | 64 | 193 | 0.0 | 2.0 | 0.04 | 0.04 | 0.04 | 86 | 1005.7 |
| 20260506154509 | 65 | 222 | 0.0 | 6.0 | 0.02 | 0.02 | 0.02 | 83 | 1005.8 |
| 20260506154503 | 66 | 191 | 1.0 | 5.0 | 0.02 | 0.02 | 0.02 | 83 | 1005.7 |
| 20260506153603 | 66 | 209 | 1.0 | 9.0 | 0.01 | 0.01 | 0.01 | 82 | 1005.5 |
| 20260506153019 | 66 | 253 | 2.0 | 8.0 | 0.01 | 0.01 | 0.01 | 79 | 1005.7 |
| 20260506152916 | 67 | 200 | 1.0 | 4.0 | 0.00 | 0.00 | 0.00 | 80 | 1005.6 |
| 20260506151803 | 67 | 213 | 1.0 | 4.0 | 0.00 | 0.00 | 0.00 | 79 | 1005.6 |
| 20260506151506 | 67 | 202 | 1.0 | 5.0 | 0.00 | 0.00 | 0.00 | 78 | 1005.8 |
| 20260506150903 | 68 | 215 | 1.0 | 4.0 | 0.00 | 0.00 | 0.00 | 77 | 1005.6 |
| 20260506150006 | 68 | 224 | 1.0 | 5.0 | 0.00 | 0.00 | 0.00 | 74 | 1005.6 |
| 20260506150003 | 68 | 206 | 1.0 | 5.0 | 0.00 | 0.00 | 0.00 | 74 | 1005.4 |
| 20260506145403 | 68 | 203 | 2.0 | 7.0 | 0.00 | 0.00 | 0.00 | 72 | 1005.6 |
| 20260506144515 | 69 | 233 | 1.0 | 7.0 | 0.00 | 0.00 | 0.00 | 71 | 1005.8 |
| 20260506144503 | 69 | 206 | 2.0 | 7.0 | 0.00 | 0.00 | 0.00 | 71 | 1005.7 |
| 20260506143603 | 70 | 216 | 2.0 | 7.0 | 0.00 | 0.00 | 0.00 | 69 | 1005.7 |
| 20260506143104 | 70 | 243 | 2.0 | 10.0 | 0.00 | 0.00 | 0.00 | 69 | 1005.8 |
| 20260506142703 | 70 | 214 | 3.0 | 10.0 | 0.00 | 0.00 | 0.00 | 69 | 1005.7 |
| 20260506142017 | 70 | 199 | 3.0 | 7.0 | 0.00 | 0.00 | 0.00 | 70 | 1005.7 |
| 20260506141606 | 70 | 223 | 3.0 | 8.0 | 0.00 | 0.00 | 0.00 | 70 | 1005.8 |
| 20260506140903 | 70 | 210 | 3.0 | 8.0 | 0.00 | 0.00 | 0.00 | 71 | 1005.6 |
| 20260506140218 | 69 | 205 | 3.0 | 8.0 | 0.00 | 0.00 | 0.00 | 73 | 1005.4 |
| 20260506140016 | 68 | 146 | 4.0 | 8.0 | 0.00 | 0.00 | 0.00 | 72 | 1005.7 |
| 20260506135403 | 68 | 205 | 3.0 | 9.0 | 0.00 | 0.00 | 0.00 | 72 | 1005.5 |
| 20260506134717 | 68 | 207 | 3.0 | 5.0 | 0.00 | 0.00 | 0.00 | 72 | 1005.6 |
| 20260506134506 | 68 | 195 | 3.0 | 7.0 | 0.00 | 0.00 | 0.00 | 72 | 1005.7 |
| 20260506133818 | 69 | 214 | 3.0 | 8.0 | 0.00 | 0.00 | 0.00 | 72 | 1005.6 |
| 20260506133010 | 68 | 163 | 3.0 | 11.0 | 0.00 | 0.00 | 0.00 | 72 | 1005.8 |
| 20260506132703 | 69 | 205 | 3.0 | 11.0 | 0.00 | 0.00 | 0.00 | 71 | 1005.8 |
| 20260506131803 | 69 | 204 | 4.0 | 10.0 | 0.00 | 0.00 | 0.00 | 72 | 1005.7 |
| 20260506131603 | 69 | 194 | 3.0 | 12.0 | 0.00 | 0.00 | 0.00 | 71 | 1005.8 |
| 20260506130903 | 69 | 199 | 3.0 | 10.0 | 0.00 | 0.00 | 0.00 | 72 | 1005.7 |
| 20260506130004 | 68 | 220 | 3.0 | 9.0 | 0.00 | 0.00 | 0.00 | 74 | 1005.8 |
| 20260506125403 | 68 | 207 | 3.0 | 10.0 | 0.00 | 0.00 | 0.00 | 74 | 1005.8 |
| 20260506124506 | 67 | 229 | 3.0 | 10.0 | 0.00 | 0.00 | 0.00 | 74 | 1005.7 |
| 20260506124503 | 68 | 202 | 4.0 | 10.0 | 0.00 | 0.00 | 0.00 | 74 | 1005.5 |
| 20260506123603 | 67 | 205 | 3.0 | 6.0 | 0.00 | 0.00 | 0.00 | 74 | 1005.5 |
| 20260506123008 | 66 | 189 | 3.0 | 9.0 | 0.00 | 0.00 | 0.00 | 75 | 1005.5 |
| 20260506122703 | 66 | 202 | 3.0 | 10.0 | 0.00 | 0.00 | 0.00 | 76 | 1005.5 |
| 20260506121803 | 66 | 198 | 3.0 | 7.0 | 0.00 | 0.00 | 0.00 | 76 | 1005.6 |
| 20260506121513 | 66 | 160 | 2.0 | 6.0 | 0.00 | 0.00 | 0.00 | 77 | 1005.9 |
| 20260506120903 | 66 | 202 | 2.0 | 9.0 | 0.00 | 0.00 | 0.00 | 77 | 1005.8 |
| 20260506120003 | 66 | 206 | 3.0 | 8.0 | 0.00 | 0.00 | 0.00 | 76 | 1005.7 |
| 20260506115403 | 66 | 200 | 3.0 | 8.0 | 0.00 | 0.00 | 0.00 | 76 | 1005.8 |
| 20260506114517 | 66 | 198 | 3.0 | 7.0 | 0.00 | 0.00 | 0.00 | 76 | 1006.0 |
| 20260506114503 | 66 | 202 | 3.0 | 8.0 | 0.00 | 0.00 | 0.00 | 76 | 1005.8 |
| 20260506113603 | 66 | 205 | 3.0 | 8.0 | 0.00 | 0.00 | 0.00 | 76 | 1006.0 |
| 20260506113023 | 66 | 205 | 2.0 | 7.0 | 0.00 | 0.00 | 0.00 | 77 | 1006.0 |
| 20260506112917 | 66 | 206 | 3.0 | 10.0 | 0.00 | 0.00 | 0.00 | 76 | 1005.9 |
| 20260506111803 | 66 | 198 | 3.0 | 13.0 | 0.00 | 0.00 | 0.00 | 78 | 1005.8 |
| 20260506111503 | 65 | 202 | 3.0 | 12.0 | 0.00 | 0.00 | 0.00 | 79 | 1006.0 |
| 20260506110903 | 65 | 199 | 4.0 | 13.0 | 0.00 | 0.00 | 0.00 | 80 | 1005.8 |
| 20260506110008 | 64 | 194 | 3.0 | 5.0 | 0.00 | 0.00 | 0.00 | 81 | 1005.9 |
| 20260506110003 | 64 | 201 | 3.0 | 6.0 | 0.00 | 0.00 | 0.00 | 81 | 1005.8 |
| 20260506105403 | 64 | 206 | 3.0 | 9.0 | 0.00 | 0.00 | 0.00 | 82 | 1005.7 |
| 20260506104509 | 63 | 210 | 2.0 | 6.0 | 0.00 | 0.00 | 0.00 | 84 | 1005.8 |
| 20260506104503 | 63 | 207 | 2.0 | 6.0 | 0.00 | 0.00 | 0.00 | 84 | 1005.7 |
| 20260506103603 | 62 | 206 | 1.0 | 6.0 | 0.00 | 0.00 | 0.00 | 84 | 1005.6 |
| 20260506103105 | 62 | 188 | 1.0 | 3.0 | 0.00 | 0.00 | 0.00 | 84 | 1005.7 |
| 20260506102703 | 62 | 201 | 1.0 | 4.0 | 0.00 | 0.00 | 0.00 | 85 | 1005.7 |
| 20260506101803 | 62 | 204 | 1.0 | 4.0 | 0.00 | 0.00 | 0.00 | 85 | 1005.8 |
| 20260506101509 | 62 | 231 | 1.0 | 5.0 | 0.00 | 0.00 | 0.00 | 85 | 1005.9 |
| 20260506100903 | 62 | 218 | 1.0 | 4.0 | 0.00 | 0.00 | 0.00 | 84 | 1005.7 |
| 20260506100010 | 62 | 217 | 0.0 | 4.0 | 0.00 | 0.00 | 0.00 | 84 | 1005.8 |
| 20260506100004 | 62 | 222 | 1.0 | 3.0 | 0.00 | 0.00 | 0.00 | 84 | 1005.6 |
| 20260506095403 | 62 | 218 | 0.0 | 3.0 | 0.00 | 0.00 | 0.00 | 84 | 1005.6 |
| 20260506094511 | 62 | 205 | 0.0 | 5.0 | 0.00 | 0.00 | 0.00 | 84 | 1005.7 |
| 20260506094503 | 63 | 209 | 1.0 | 5.0 | 0.00 | 0.00 | 0.00 | 84 | 1005.6 |
| 20260506093603 | 63 | 211 | 1.0 | 6.0 | 0.00 | 0.00 | 0.00 | 84 | 1005.5 |
| 20260506093004 | 62 | 215 | 1.0 | 4.0 | 0.00 | 0.00 | 0.00 | 84 | 1005.6 |
| 20260506092703 | 63 | 213 | 1.0 | 6.0 | 0.00 | 0.00 | 0.00 | 84 | 1005.6 |
| 20260506091803 | 62 | 209 | 1.0 | 3.0 | 0.00 | 0.00 | 0.00 | 84 | 1005.5 |
| 20260506091509 | 62 | 208 | 1.0 | 3.0 | 0.00 | 0.00 | 0.00 | 84 | 1005.6 |
| 20260506090903 | 63 | 212 | 1.0 | 6.0 | 0.00 | 0.00 | 0.00 | 84 | 1005.6 |
| 20260506090218 | 63 | 207 | 2.0 | 4.0 | 0.00 | 0.00 | 0.00 | 84 | 1005.7 |
| 20260506090013 | 62 | 195 | 1.0 | 4.0 | 0.00 | 0.00 | 0.00 | 84 | 1005.8 |
| 20260506085403 | 63 | 207 | 1.0 | 6.0 | 0.00 | 0.00 | 0.00 | 84 | 1005.7 |
| 20260506084513 | 62 | 141 | 1.0 | 3.0 | 0.00 | 0.00 | 0.00 | 84 | 1005.8 |
| 20260506084503 | 63 | 198 | 1.0 | 4.0 | 0.00 | 0.00 | 0.00 | 84 | 1005.7 |
| 20260506083603 | 63 | 212 | 1.0 | 5.0 | 0.00 | 0.00 | 0.00 | 83 | 1005.8 |
| 20260506083004 | 63 | 215 | 0.0 | 5.0 | 0.00 | 0.00 | 0.00 | 83 | 1005.9 |
| 20260506082703 | 63 | 200 | 1.0 | 3.0 | 0.00 | 0.00 | 0.00 | 83 | 1005.7 |
| 20260506081803 | 64 | 199 | 1.0 | 4.0 | 0.00 | 0.00 | 0.00 | 82 | 1005.8 |
| 20260506081507 | 63 | 155 | 1.0 | 5.0 | 0.00 | 0.00 | 0.00 | 82 | 1005.9 |
| 20260506080903 | 64 | 197 | 2.0 | 4.0 | 0.00 | 0.00 | 0.00 | 82 | 1005.8 |
| 20260506080218 | 64 | 197 | 2.0 | 4.0 | 0.00 | 0.00 | 0.00 | 82 | 1005.8 |
| 20260506073004 | 64 | 201 | 2.0 | 5.0 | 0.00 | 0.00 | 0.00 | 81 | 1006.0 |
| 20260506072703 | 64 | 204 | 2.0 | 4.0 | 0.00 | 0.00 | 0.00 | 81 | 1005.8 |
| 20260506071803 | 64 | 204 | 2.0 | 3.0 | 0.00 | 0.00 | 0.00 | 80 | 1005.8 |
| 20260506071508 | 64 | 189 | 1.0 | 4.0 | 0.00 | 0.00 | 0.00 | 80 | 1005.9 |
| 20260506070903 | 65 | 200 | 2.0 | 4.0 | 0.00 | 0.00 | 0.00 | 80 | 1005.8 |
| 20260506061803 | 65 | 205 | 2.0 | 6.0 | 0.00 | 0.00 | 0.00 | 77 | 1006.1 |
| 20260506061509 | 65 | 217 | 1.0 | 6.0 | 0.00 | 0.00 | 0.00 | 77 | 1006.2 |
| 20260506060903 | 65 | 205 | 1.0 | 3.0 | 0.00 | 0.00 | 0.00 | 77 | 1006.1 |
| 20260506050903 | 66 | 202 | 2.0 | 6.0 | 0.00 | 0.00 | 0.00 | 73 | 1006.6 |
| 20260506044503 | 67 | 207 | 1.0 | 6.0 | 0.00 | 0.00 | 0.00 | 71 | 1006.7 |
| 20260506043603 | 67 | 204 | 2.0 | 4.0 | 0.00 | 0.00 | 0.00 | 71 | 1006.7 |
| 20260506043006 | 66 | 201 | 1.0 | 4.0 | 0.00 | 0.00 | 0.00 | 70 | 1006.8 |
| 20260506042703 | 67 | 201 | 2.0 | 5.0 | 0.00 | 0.00 | 0.00 | 70 | 1006.7 |
| 20260506041803 | 67 | 201 | 2.0 | 5.0 | 0.00 | 0.00 | 0.00 | 69 | 1006.7 |
| 20260506041508 | 67 | 205 | 2.0 | 5.0 | 0.00 | 0.00 | 0.00 | 69 | 1006.8 |
| 20260506040903 | 68 | 201 | 2.0 | 5.0 | 0.00 | 0.00 | 0.00 | 69 | 1006.7 |
| 20260506040016 | 67 | 191 | 2.0 | 5.0 | 0.00 | 0.00 | 0.00 | 69 | 1006.7 |
| 20260506040004 | 68 | 205 | 2.0 | 6.0 | 0.00 | 0.00 | 0.00 | 69 | 1006.6 |
| 20260506035403 | 68 | 203 | 2.0 | 6.0 | 0.00 | 0.00 | 0.00 | 68 | 1006.6 |
| 20260506034519 | 68 | 195 | 3.0 | 7.0 | 0.00 | 0.00 | 0.00 | 67 | 1006.7 |
| 20260506034503 | 68 | 203 | 3.0 | 7.0 | 0.00 | 0.00 | 0.00 | 67 | 1006.6 |
| 20260506033603 | 68 | 199 | 3.0 | 7.0 | 0.00 | 0.00 | 0.00 | 67 | 1006.5 |
| 20260506033005 | 68 | 241 | 2.0 | 5.0 | 0.00 | 0.00 | 0.00 | 66 | 1006.7 |
| 20260506032703 | 68 | 204 | 3.0 | 6.0 | 0.00 | 0.00 | 0.00 | 66 | 1006.6 |
| 20260506031803 | 68 | 197 | 3.0 | 5.0 | 0.00 | 0.00 | 0.00 | 66 | 1006.6 |
| 20260506031510 | 68 | 189 | 2.0 | 5.0 | 0.00 | 0.00 | 0.00 | 65 | 1006.7 |
| 20260506030903 | 69 | 202 | 2.0 | 5.0 | 0.00 | 0.00 | 0.00 | 65 | 1006.6 |
| 20260506030011 | 68 | 199 | 2.0 | 9.0 | 0.00 | 0.00 | 0.00 | 65 | 1006.8 |
| 20260506030003 | 69 | 193 | 3.0 | 10.0 | 0.00 | 0.00 | 0.00 | 65 | 1006.7 |
| 20260506025403 | 69 | 197 | 3.0 | 10.0 | 0.00 | 0.00 | 0.00 | 64 | 1006.5 |
| 20260506024520 | 68 | 194 | 2.0 | 6.0 | 0.00 | 0.00 | 0.00 | 64 | 1006.7 |
| 20260506024503 | 69 | 199 | 3.0 | 5.0 | 0.00 | 0.00 | 0.00 | 64 | 1006.6 |
| 20260506023603 | 69 | 199 | 2.0 | 5.0 | 0.00 | 0.00 | 0.00 | 64 | 1006.6 |
| 20260506023010 | 69 | 201 | 3.0 | 7.0 | 0.00 | 0.00 | 0.00 | 63 | 1006.6 |
| 20260506022703 | 69 | 201 | 2.0 | 7.0 | 0.00 | 0.00 | 0.00 | 63 | 1006.5 |
| 20260506021803 | 70 | 204 | 3.0 | 8.0 | 0.00 | 0.00 | 0.00 | 62 | 1006.5 |
| 20260506021506 | 69 | 208 | 2.0 | 7.0 | 0.00 | 0.00 | 0.00 | 62 | 1006.7 |
| 20260506020903 | 70 | 207 | 3.0 | 10.0 | 0.00 | 0.00 | 0.00 | 62 | 1006.5 |
| 20260506020010 | 70 | 192 | 2.0 | 9.0 | 0.00 | 0.00 | 0.00 | 62 | 1006.6 |
| 20260506020004 | 70 | 202 | 2.0 | 10.0 | 0.00 | 0.00 | 0.00 | 62 | 1006.5 |
| 20260506015403 | 70 | 202 | 3.0 | 8.0 | 0.00 | 0.00 | 0.00 | 62 | 1006.5 |
| 20260506014503 | 71 | 200 | 3.0 | 7.0 | 0.00 | 0.00 | 0.00 | 61 | 1006.5 |
| 20260506013603 | 71 | 202 | 3.0 | 7.0 | 0.00 | 0.00 | 0.00 | 60 | 1006.4 |
| 20260506013009 | 71 | 192 | 3.0 | 9.0 | 0.00 | 0.00 | 0.00 | 59 | 1006.4 |
| 20260506012917 | 71 | 199 | 3.0 | 9.0 | 0.00 | 0.00 | 0.00 | 59 | 1006.4 |
| 20260506011803 | 72 | 199 | 4.0 | 14.0 | 0.00 | 0.00 | 0.00 | 57 | 1006.2 |
| 20260506011510 | 72 | 192 | 5.0 | 14.0 | 0.00 | 0.00 | 0.00 | 57 | 1006.3 |
| 20260506010903 | 72 | 197 | 3.0 | 10.0 | 0.00 | 0.00 | 0.00 | 56 | 1006.1 |
| 20260506010217 | 73 | 196 | 3.0 | 10.0 | 0.00 | 0.00 | 0.00 | 53 | 1005.9 |
| 20260506010014 | 72 | 133 | 3.0 | 8.0 | 0.00 | 0.00 | 0.00 | 53 | 1006.0 |
| 20260506005403 | 73 | 190 | 4.0 | 10.0 | 0.00 | 0.00 | 0.00 | 52 | 1005.9 |
| 20260506004513 | 73 | 196 | 4.0 | 8.0 | 0.00 | 0.00 | 0.00 | 50 | 1005.8 |
| 20260506004503 | 74 | 193 | 3.0 | 9.0 | 0.00 | 0.00 | 0.00 | 50 | 1005.6 |
| 20260506003603 | 74 | 192 | 3.0 | 7.0 | 0.00 | 0.00 | 0.00 | 49 | 1005.4 |
| 20260506003006 | 74 | 165 | 3.0 | 7.0 | 0.00 | 0.00 | 0.00 | 48 | 1005.5 |
| 20260506002703 | 74 | 195 | 2.0 | 6.0 | 0.00 | 0.00 | 0.00 | 48 | 1005.4 |
| 20260506002016 | 75 | 197 | 3.0 | 6.0 | 0.00 | 0.00 | 0.00 | 47 | 1005.3 |
| 20260506001509 | 75 | 175 | 3.0 | 6.0 | 0.00 | 0.00 | 0.00 | 47 | 1005.4 |
| 20260506000903 | 75 | 197 | 3.0 | 10.0 | 0.00 | 0.00 | 0.00 | 47 | 1005.2 |
| 20260506000219 | 75 | 202 | 2.0 | 6.0 | 0.00 | 0.00 | 0.00 | 47 | 1005.1 |
| 20260506000013 | 75 | 208 | 2.0 | 7.0 | 0.00 | 0.00 | 0.00 | 46 | 1005.2 |
| 20260505235616 | 76 | 204 | 2.0 | 6.0 | 0.00 | 0.00 | 0.00 | 46 | 1005.1 |
| 20260505234506 | 76 | 244 | 3.0 | 11.0 | 0.00 | 0.00 | 0.00 | 45 | 1005.2 |
| 20260505234503 | 76 | 197 | 3.0 | 12.0 | 0.00 | 0.00 | 0.00 | 45 | 1005.1 |
| 20260505233817 | 77 | 208 | 2.0 | 12.0 | 0.00 | 0.00 | 0.00 | 45 | 1005.1 |
| 20260505233006 | 77 | 205 | 3.0 | 14.0 | 0.00 | 0.00 | 0.00 | 44 | 1005.1 |
| 20260505232703 | 77 | 202 | 5.0 | 15.0 | 0.00 | 0.00 | 0.00 | 44 | 1004.9 |
| 20260505231803 | 78 | 207 | 4.0 | 11.0 | 0.00 | 0.00 | 0.00 | 42 | 1004.8 |
| 20260505231510 | 78 | 160 | 4.0 | 12.0 | 0.00 | 0.00 | 0.00 | 42 | 1004.9 |
| 20260505230903 | 78 | 199 | 4.0 | 9.0 | 0.00 | 0.00 | 0.00 | 40 | 1004.6 |
| 20260505230006 | 78 | 196 | 4.0 | 9.0 | 0.00 | 0.00 | 0.00 | 39 | 1004.7 |
| 20260505230003 | 79 | 210 | 3.0 | 9.0 | 0.00 | 0.00 | 0.00 | 39 | 1004.6 |
| 20260505225403 | 79 | 208 | 3.0 | 9.0 | 0.00 | 0.00 | 0.00 | 38 | 1004.6 |
| 20260505224506 | 79 | 150 | 2.0 | 13.0 | 0.00 | 0.00 | 0.00 | 38 | 1004.6 |
| 20260505224503 | 79 | 208 | 3.0 | 13.0 | 0.00 | 0.00 | 0.00 | 38 | 1004.5 |
| 20260505223603 | 80 | 211 | 5.0 | 15.0 | 0.00 | 0.00 | 0.00 | 36 | 1004.4 |
| 20260505223009 | 79 | 246 | 2.0 | 10.0 | 0.00 | 0.00 | 0.00 | 36 | 1004.5 |
| 20260505222703 | 80 | 201 | 5.0 | 11.0 | 0.00 | 0.00 | 0.00 | 36 | 1004.4 |
| 20260505221803 | 80 | 221 | 5.0 | 13.0 | 0.00 | 0.00 | 0.00 | 37 | 1004.5 |
| 20260505221511 | 80 | 247 | 6.0 | 12.0 | 0.00 | 0.00 | 0.00 | 35 | 1004.6 |
| 20260505220903 | 81 | 210 | 4.0 | 9.0 | 0.00 | 0.00 | 0.00 | 35 | 1004.5 |
| 20260505220012 | 81 | 260 | 3.0 | 14.0 | 0.00 | 0.00 | 0.00 | 34 | 1004.5 |
| 20260505220003 | 81 | 213 | 4.0 | 15.0 | 0.00 | 0.00 | 0.00 | 34 | 1004.4 |
| 20260505215618 | 82 | 212 | 5.0 | 15.0 | 0.00 | 0.00 | 0.00 | 33 | 1004.3 |
| 20260505214511 | 82 | 153 | 3.0 | 16.0 | 0.00 | 0.00 | 0.00 | 33 | 1004.2 |
| 20260505214503 | 82 | 209 | 4.0 | 16.0 | 0.00 | 0.00 | 0.00 | 33 | 1004.1 |
| 20260505213603 | 83 | 220 | 5.0 | 15.0 | 0.00 | 0.00 | 0.00 | 31 | 1003.9 |
| 20260505213004 | 83 | 206 | 6.0 | 16.0 | 0.00 | 0.00 | 0.00 | 30 | 1004.1 |
| 20260505212703 | 83 | 232 | 5.0 | 14.0 | 0.00 | 0.00 | 0.00 | 30 | 1004.1 |
| 20260505211803 | 84 | 202 | 6.0 | 16.0 | 0.00 | 0.00 | 0.00 | 32 | 1004.1 |
| 20260505211507 | 83 | 230 | 7.0 | 16.0 | 0.00 | 0.00 | 0.00 | 30 | 1004.1 |
| 20260505210903 | 84 | 215 | 5.0 | 12.0 | 0.00 | 0.00 | 0.00 | 31 | 1003.9 |
| 20260505210012 | 84 | 214 | 5.0 | 16.0 | 0.00 | 0.00 | 0.00 | 32 | 1004.1 |
| 20260505210003 | 84 | 221 | 5.0 | 17.0 | 0.00 | 0.00 | 0.00 | 32 | 1004.0 |
| 20260505205403 | 84 | 216 | 5.0 | 14.0 | 0.00 | 0.00 | 0.00 | 31 | 1003.9 |
| 20260505204504 | 84 | 144 | 5.0 | 14.0 | 0.00 | 0.00 | 0.00 | 33 | 1003.9 |
| 20260505203603 | 84 | 211 | 6.0 | 21.0 | 0.00 | 0.00 | 0.00 | 32 | 1003.9 |
| 20260505203006 | 84 | 181 | 5.0 | 17.0 | 0.00 | 0.00 | 0.00 | 32 | 1004.0 |
| 20260505202703 | 84 | 209 | 6.0 | 17.0 | 0.00 | 0.00 | 0.00 | 33 | 1003.8 |
| 20260505201803 | 84 | 214 | 7.0 | 18.0 | 0.00 | 0.00 | 0.00 | 32 | 1004.0 |
| 20260505201508 | 84 | 144 | 5.0 | 14.0 | 0.00 | 0.00 | 0.00 | 33 | 1004.2 |
| 20260505200903 | 84 | 228 | 6.0 | 20.0 | 0.00 | 0.00 | 0.00 | 33 | 1004.1 |
| 20260505200023 | 84 | 178 | 4.0 | 13.0 | 0.00 | 0.00 | 0.00 | 35 | 1004.2 |
| 20260505200003 | 84 | 230 | 5.0 | 13.0 | 0.00 | 0.00 | 0.00 | 35 | 1004.1 |
| 20260505195617 | 84 | 225 | 6.0 | 18.0 | 0.00 | 0.00 | 0.00 | 34 | 1004.1 |
| 20260505194513 | 83 | 196 | 6.0 | 16.0 | 0.00 | 0.00 | 0.00 | 35 | 1004.3 |
| 20260505194503 | 84 | 221 | 5.0 | 15.0 | 0.00 | 0.00 | 0.00 | 35 | 1004.2 |
| 20260505193603 | 84 | 206 | 6.0 | 15.0 | 0.00 | 0.00 | 0.00 | 35 | 1004.3 |
| 20260505193006 | 84 | 185 | 5.0 | 11.0 | 0.00 | 0.00 | 0.00 | 37 | 1004.4 |
| 20260505192703 | 84 | 200 | 5.0 | 9.0 | 0.00 | 0.00 | 0.00 | 36 | 1004.3 |